GFSSGP_con_lsi_132.txt.gz
Lid_Strength_Index
4 5 3 3 6 7 10 10 7 8 7 5 5 6 6 6 7 9 1 -0 -1 -1 -1 -1 -2 -2 -2 -2 -2 -2 -2 -2 -2 -2 -2 -2 -2 -2 -2 -2 -2 -2 -2 -2 -2 -2 -2 -2 -2
5 5 3 4 8 10 10 7 9 7 5 4 5 5 6 7 4 3 2 -0 -1 -1 -1 -1 -1 -2 -1 -2 -2 -2 -2 -3 -2 -2 -2 -2 -2 -2 -2 -2 -2 -2 -2 -2 -2 -2 -2 -2 -2
6 5 5 7 8 10 10 7 7 6 5 5 6 4 5 6 3 2 0 -1 -1 -1 -1 -2 -1 -2 -2 -2 -2 -2 -3 -3 -3 -3 -2 -2 -2 -2 -2 -2 -2 -2 -2 -2 -2 -2 -2 -2 -2
5 4 6 8 10 8 8 6 6 6 5 5 5 7 4 2 2 1 -0 -1 -1 -1 -1 -1 -1 -2 -2 -2 -2 -2 -3 -2 -2 -2 -2 -2 -2 -2 -2 -2 -2 -2 -2 -2 -2 -2 -2 -2 -2
5 5 8 8 9 8 7 6 5 6 6 5 5 7 6 3 1 0 -0 -1 -0 -1 -1 -2 -1 -2 -2 -2 -2 -2 -2 -2 -2 -2 -2 -2 -2 -2 -2 -3 -2 -2 -2 -2 -2 -2 -2 -2 -2
7 6 10 11 9 8 7 5 5 5 5 5 5 6 6 2 2 1 -0 -0 -1 -1 -1 -1 -0 -1 -1 -2 -2 -2 -2 -2 -2 -2 -2 -2 -2 -2 -2 -3 -2 -2 -2 -2 -2 -2 -2 -2 -2
8 8 10 10 9 8 7 5 6 5 5 6 4 7 5 3 1 0 -0 -1 -1 -1 -1 -1 -1 -1 -0 -1 -1 -2 -2 -2 -2 -2 -2 -2 -2 -3 -3 -3 -3 -2 -2 -2 -2 -2 -2 -2 -2
8 8 11 10 9 9 6 5 5 5 6 3 3 6 6 3 1 0 0 -0 -0 -1 -1 -1 -1 -1 -2 -2 0 -0 -1 -1 -2 -1 -1 -1 -1 -2 -1 -1 -2 -2 -2 -2 -2 -2 -2 -2 -2
8 10 11 11 10 8 6 6 6 6 5 4 4 4 3 2 1 1 1 1 1 0 0 -1 -1 -1 -1 -2 -0 0 0 -1 -1 0 1 -0 -2 -2 -1 -1 -2 -2 -2 -2 -2 -2 -2 -1 -1
10 11 11 10 9 9 7 6 6 6 5 5 5 3 2 2 2 3 3 3 2 1 1 0 -1 -1 -1 -1 -2 -2 -2 -2 -2 -2 -2 -2 -2 -2 -1 -0 -0 -1 -2 -2 -2 -1 -0 -1 -2
11 11 11 10 10 10 9 8 6 6 7 5 5 4 4 3 3 3 2 2 2 1 0 1 0 -1 -1 -1 -1 -1 -2 -2 -2 -2 -2 -2 -2 -2 -2 -2 -2 -2 -0 -2 -2 -2 -2 -1 -2
11 11 10 10 10 11 11 8 7 6 5 5 3 3 3 4 4 3 3 2 2 1 0 0 0 0 0 -1 -1 -1 -1 -1 -1 -2 -2 -2 -1 -1 -1 -2 -2 -2 -2 -2 -2 -2 -2 -2 -2
11 12 11 11 11 11 10 10 7 7 5 6 3 3 4 4 3 2 2 1 1 1 0 0 -0 -1 0 0 -1 -1 -1 -1 -1 -2 -2 -2 -1 -1 -1 -1 -2 -2 -2 -2 -2 -2 -2 -2 -2
11 11 12 11 11 11 11 11 10 6 5 5 4 4 3 3 3 3 2 2 2 1 1 -0 -0 -1 -1 -0 0 -1 -1 -1 -1 -1 -2 -2 -1 -1 -1 -1 -1 -1 -2 -1 -1 -2 -1 -1 -1
11 13 12 11 10 11 11 13 12 8 5 5 4 4 4 3 3 3 2 2 1 1 0 0 -0 -1 -1 -1 -0 -0 -0 -0 -1 -1 -2 -2 -2 -1 -1 -1 -1 -1 -1 -0 -1 -1 -1 -1 -1
12 11 15 11 11 11 12 13 10 9 8 6 4 4 4 4 3 2 2 1 1 1 1 0 0 -0 -0 -1 -1 -1 -0 -1 -1 -1 -1 -2 -1 -1 -1 -1 -1 -1 -0 -0 -0 -0 -0 -1 -0
14 14 13 13 11 11 11 12 11 10 10 7 5 4 4 4 3 2 2 1 1 1 1 1 -0 0 -0 -1 -1 -1 -1 -1 -1 -1 -1 -1 -1 -1 -1 -1 -1 -1 1 1 0 0 0 0 0
17 15 14 13 12 12 12 12 11 11 10 9 7 4 5 4 4 2 2 1 1 1 0 0 0 -0 -0 -0 -1 -1 -1 -1 -1 -1 -1 -1 -1 -1 -1 -0 0 1 1 2 2 2 2 2 1
13 13 14 13 12 12 12 11 9 11 10 9 8 7 5 4 3 2 2 1 1 1 1 1 1 0 0 0 1 1 1 0 -0 -1 -1 -1 -1 -1 -1 -1 0 1 2 2 2 2 3 2 3
13 15 14 14 13 13 13 12 10 10 10 9 7 6 6 5 3 3 2 2 2 1 1 1 1 0 0 0 0 0 0 -0 -0 -1 -1 -1 -1 -1 -1 -1 0 1 1 1 2 3 3 2 3
14 14 14 14 14 14 14 14 12 11 10 10 10 8 7 6 6 4 3 2 2 2 1 1 1 1 0 -0 0 0 -0 0 0 0 -0 -1 -1 -1 -1 -1 -0 0 1 1 1 2 3 2 3
16 14 14 15 14 16 14 16 13 11 11 11 9 7 7 6 6 5 5 3 2 2 1 1 1 0 0 -0 1 1 2 2 1 1 -0 -0 -1 -1 -1 -1 -1 -1 -0 -0 -0 0 1 2 2
14 13 13 15 15 15 15 16 13 14 13 11 9 7 7 6 6 6 6 5 4 4 1 1 1 1 0 0 0 1 1 1 0 0 0 0 -1 -1 -1 -1 -1 -1 -1 -0 -0 1 1 2 1
14 14 15 15 15 18 14 15 14 14 13 10 9 8 8 6 7 8 8 7 7 6 6 4 2 1 0 0 0 1 1 1 1 1 1 1 0 -0 -0 0 0 -0 -0 0 1 0 1 1 0
14 14 18 18 18 19 18 18 14 12 11 10 10 9 10 9 8 9 8 8 8 7 6 5 3 2 1 1 1 1 1 1 1 1 1 1 1 1 1 0 1 0 -0 -0 0 1 1 1 1
15 14 17 20 20 18 19 18 14 11 12 11 11 11 10 9 9 9 9 8 7 6 5 5 2 2 2 1 2 1 1 1 1 1 1 1 1 0 -0 -0 -1 -1 -1 -0 0 1 0 2 2
15 16 14 19 22 18 16 15 13 11 12 12 12 12 11 9 9 8 7 6 6 6 5 5 5 5 4 3 3 4 5 5 5 5 4 0 0 0 -0 -0 -0 -0 -1 0 1 2 2 2 3
14 14 18 17 20 21 19 18 15 13 13 13 12 12 11 10 10 9 8 7 6 5 5 5 4 4 4 3 3 3 3 3 2 2 4 3 0 1 0 -0 -0 0 0 1 1 3 3 3 5
15 16 16 15 16 18 20 17 13 14 13 13 12 11 10 9 9 8 8 8 7 6 5 5 4 4 4 4 3 3 3 3 2 2 2 2 2 2 1 1 1 3 4 4 4 5 5 6 7
13 14 14 17 19 18 18 16 15 13 12 12 12 11 10 8 8 8 8 7 7 6 6 5 5 5 5 4 4 4 3 3 4 4 4 4 4 5 5 6 6 7 7 7 7 7 7 8 9

GFSSGP_con_lsi_138.txt.gz
Lid_Strength_Index
3 4 4 4 9 9 12 11 8 8 8 6 5 7 7 7 9 12 2 0 0 0 -1 -1 -1 -2 -2 -2 -2 -2 -2 -2 -2 -2 -2 -2 -2 -2 -2 -2 -3 -3 -2 -2 -2 -2 -2 -2 -2
5 5 5 6 11 13 12 8 9 8 6 5 6 6 7 9 4 4 3 0 0 -0 -0 -1 -1 -2 -2 -2 -2 -2 -2 -2 -2 -2 -2 -2 -2 -2 -2 -2 -3 -2 -2 -2 -2 -2 -2 -2 -2
5 5 7 9 10 12 12 8 8 7 6 6 7 5 6 7 4 3 1 0 -0 0 -0 -1 -1 -2 -2 -2 -2 -2 -2 -2 -2 -2 -2 -2 -2 -2 -2 -2 -3 -2 -2 -2 -2 -2 -2 -2 -2
6 6 7 11 11 11 9 8 6 7 7 6 6 8 5 3 3 2 0 0 0 0 -0 -1 -1 -2 -2 -2 -2 -2 -2 -2 -2 -2 -2 -2 -2 -2 -2 -2 -3 -2 -2 -2 -2 -2 -2 -2 -2
7 7 10 11 10 10 9 6 6 7 7 6 6 8 7 3 1 1 1 0 1 0 -0 -1 -1 -2 -2 -2 -2 -2 -2 -2 -2 -2 -2 -2 -2 -2 -2 -2 -2 -2 -2 -2 -2 -2 -2 -2 -2
10 8 11 13 10 10 8 7 6 7 6 6 7 7 7 2 2 1 1 1 0 0 -0 -1 0 -1 -2 -2 -2 -2 -2 -2 -2 -2 -2 -2 -2 -2 -2 -2 -2 -2 -2 -2 -2 -2 -2 -2 -2
10 10 12 11 11 10 8 5 7 7 7 7 5 8 6 4 2 1 1 1 0 -0 -0 -0 -1 -0 -0 -1 -1 -2 -2 -2 -2 -2 -2 -2 -2 -2 -3 -3 -2 -2 -2 -2 -2 -2 -2 -2 -2
10 10 11 10 11 10 7 7 6 6 7 5 5 8 8 4 2 1 1 1 1 1 0 0 0 -0 -0 -0 0 -0 -1 -2 -2 -2 -2 -1 -1 -2 -2 -1 -2 -2 -2 -2 -2 -2 -2 -2 -1
9 12 12 11 10 10 8 7 6 6 6 6 5 5 4 2 2 2 2 2 1 1 0 0 0 0 0 -0 0 0 -0 -0 -1 -1 -1 0 -0 -0 -0 -1 -2 -2 -2 -2 -2 -2 -1 -1 -1
11 12 11 8 8 9 8 7 6 7 6 7 6 4 3 2 3 3 3 3 3 2 1 0 1 0 0 -1 -0 -0 -1 -1 -0 -0 0 -0 -0 0 -1 0 -1 -2 -2 -2 -2 -1 -1 -0 1
11 12 9 8 8 9 8 8 5 7 8 6 6 5 4 4 3 3 3 3 2 2 1 0 0 0 0 0 0 0 -0 0 0 -0 0 -0 -0 0 -0 0 0 1 1 0 -0 0 0 0 0
13 10 9 8 9 10 10 8 7 6 7 5 4 4 4 4 4 4 3 3 2 2 1 0 0 1 0 0 0 0 0 0 0 0 -0 0 0 1 1 1 1 1 1 1 1 1 0 1 0
13 11 10 9 10 10 10 11 9 7 6 6 4 4 4 4 4 3 2 2 2 2 1 1 0 1 1 1 1 0 1 1 0 0 -0 0 1 1 1 1 1 1 1 1 1 1 1 1 0
11 11 11 10 10 11 11 11 11 9 6 6 4 5 4 4 4 3 3 3 2 2 1 1 0 -0 0 1 1 1 1 0 0 0 0 -0 0 1 1 1 1 1 1 2 2 1 1 1 1
10 13 11 11 10 11 11 13 13 10 8 8 7 5 4 4 3 3 3 3 2 2 1 1 0 0 0 0 0 1 0 0 1 0 0 0 0 0 1 1 1 1 1 1 1 2 2 2 1
13 13 15 12 11 11 12 14 11 10 11 10 8 6 5 4 3 3 2 2 2 2 2 1 0 0 0 0 0 0 1 1 1 1 0 0 -0 0 1 1 1 0 1 1 2 2 2 2 2
14 16 15 12 10 12 13 14 10 9 11 11 10 8 5 5 4 3 3 2 2 2 2 1 1 1 1 1 0 0 0 1 1 0 1 0 -0 -0 1 1 1 1 1 2 1 1 1 2 1
16 15 14 13 12 12 14 14 12 11 11 11 11 10 8 5 4 3 3 2 2 2 1 1 1 1 1 1 1 0 1 0 0 1 1 0 0 0 0 1 1 1 2 1 1 1 1 1 1
12 14 13 12 12 14 14 14 13 12 12 11 11 10 9 6 4 3 3 3 2 2 2 2 1 1 1 1 1 2 2 1 1 1 0 0 0 0 1 1 1 2 2 1 1 2 2 2 2
13 14 13 11 13 14 15 14 12 12 12 11 11 11 10 9 7 5 3 3 3 2 2 2 1 1 1 1 1 1 2 1 1 1 0 0 -0 -0 1 1 1 2 2 2 2 2 3 2 2
13 14 14 13 15 15 17 15 13 11 11 11 11 10 10 10 8 7 5 4 3 3 2 2 1 1 1 1 1 2 2 2 2 1 1 0 0 0 1 1 1 1 2 2 2 2 3 3 3
15 11 13 14 16 18 16 18 15 12 12 11 11 11 11 10 8 6 5 4 3 3 2 2 2 2 1 1 2 2 2 3 2 2 1 1 0 1 1 1 1 1 1 2 2 2 3 3 4
13 11 13 14 16 16 18 20 15 13 13 12 11 10 10 10 9 8 5 4 3 3 3 2 2 2 2 1 1 2 2 2 2 2 2 1 1 1 1 1 1 1 1 1 1 2 2 3 2
12 12 15 15 16 19 16 18 17 14 13 12 11 10 10 10 10 9 7 4 4 3 3 3 3 2 2 2 1 2 2 2 2 2 2 2 2 0 0 1 1 1 1 1 1 1 2 3 2
14 17 20 20 21 21 16 18 16 14 13 12 11 10 10 10 10 10 10 9 7 5 4 3 3 3 2 2 2 2 2 2 3 3 3 2 2 2 1 1 1 2 2 2 2 2 3 3 3
16 15 19 22 22 22 21 19 17 12 11 12 11 12 12 10 11 10 10 10 10 9 9 9 8 6 4 3 3 3 2 3 3 2 1 2 2 2 0 0 1 2 1 2 2 1 2 3 4
16 18 13 19 23 22 21 18 15 14 14 14 13 13 13 12 11 11 10 10 10 10 9 8 8 7 7 5 4 4 4 4 4 2 2 2 1 1 0 0 0 1 1 2 2 2 2 2 3
14 13 18 18 24 25 22 21 18 15 15 15 14 14 13 11 11 10 10 9 9 8 8 8 6 5 5 4 4 4 4 4 3 3 3 3 3 1 1 1 1 2 2 2 2 2 2 3 5
16 17 16 17 19 22 24 21 16 15 15 15 14 13 13 12 11 10 9 8 8 7 7 7 6 6 6 5 5 4 5 5 5 4 4 4 4 3 3 2 3 3 4 3 2 4 4 6 7
13 16 16 19 21 21 21 20 17 15 14 14 14 13 13 11 11 10 9 9 8 8 7 7 7 7 7 6 6 5 5 5 5 6 5 4 6 6 5 5 5 5 6 5 5 6 7 8 9

GFSSGP_con_lsi_141.txt.gz
Lid_Strength_Index
4 6 7 7 12 11 13 12 9 9 9 7 6 7 8 8 10 12 2 1 0 -0 -1 -1 -2 -2 -2 -2 -2 -2 -2 -2 -2 -2 -2 -2 -2 -2 -2 -2 -3 -2 -2 -2 -2 -2 -2 -2 -2
5 6 7 9 14 16 13 10 10 9 7 6 6 6 7 9 5 4 3 1 -0 -0 -1 -1 -1 -2 -2 -2 -2 -2 -2 -2 -2 -2 -2 -2 -2 -2 -2 -2 -3 -2 -2 -2 -2 -2 -2 -2 -2
7 6 10 11 15 16 13 10 9 8 7 7 7 5 7 8 4 3 2 1 0 -0 -1 -1 -1 -2 -2 -2 -2 -2 -2 -2 -2 -2 -2 -2 -2 -2 -2 -2 -3 -2 -2 -2 -2 -2 -2 -2 -2
8 8 9 13 15 14 12 9 7 8 7 7 6 8 5 3 3 2 1 1 0 -0 -0 -1 -2 -2 -2 -2 -2 -2 -2 -2 -2 -2 -2 -2 -2 -2 -2 -2 -3 -2 -2 -2 -2 -2 -2 -2 -2
9 10 12 13 13 14 11 7 7 8 7 7 7 9 7 3 2 2 1 1 0 0 -0 -1 -1 -2 -2 -2 -2 -2 -2 -2 -2 -2 -2 -2 -2 -2 -2 -2 -2 -2 -2 -2 -2 -2 -2 -2 -2
11 10 14 14 13 13 12 7 7 7 7 7 7 8 7 3 3 2 1 1 -0 0 -0 -1 -0 -1 -2 -2 -2 -2 -2 -2 -2 -2 -2 -2 -2 -2 -2 -2 -2 -2 -2 -2 -2 -2 -2 -2 -2
11 12 14 14 13 14 12 7 8 8 7 7 6 9 6 4 2 2 2 1 0 -0 -0 -0 -0 -0 -0 -1 -1 -2 -2 -2 -2 -2 -2 -2 -2 -2 -2 -2 -2 -2 -2 -2 -2 -2 -2 -2 -2
11 11 14 13 13 12 11 8 7 8 8 6 5 9 9 4 2 2 2 1 1 0 0 0 0 -0 -0 -0 0 -0 -1 -2 -2 -2 -1 -1 -2 -2 -2 -1 -2 -2 -2 -2 -2 -2 -2 -1 -1
9 13 14 13 12 11 10 10 8 7 6 6 5 6 4 2 2 3 3 2 2 1 0 0 0 0 0 -0 1 0 -0 -1 -1 -1 -0 0 -0 -0 -1 -1 -2 -2 -2 -2 -2 -2 -1 -1 -1
9 13 13 10 10 10 11 10 8 8 8 7 7 4 3 2 3 3 4 3 3 2 2 1 0 0 0 -1 0 0 -0 -0 -0 -0 0 -0 0 0 -0 0 -1 -2 -2 -2 -1 -1 -1 -0 1
11 12 10 9 9 10 10 11 10 9 9 6 7 6 4 4 3 3 3 3 3 2 1 1 1 1 1 0 0 0 0 0 0 1 1 0 1 1 0 1 1 1 1 1 0 1 1 1 1
13 11 9 8 8 11 10 10 11 10 7 5 5 4 4 4 4 4 3 3 3 2 1 1 1 1 1 0 0 0 0 1 1 1 1 1 1 1 1 1 2 1 2 1 1 1 1 1 1
12 12 10 9 10 10 11 11 11 10 7 7 4 4 5 4 4 3 3 2 2 2 2 1 1 1 1 1 1 1 1 1 1 1 0 1 1 2 1 1 1 1 2 2 2 1 1 1 1
10 10 10 10 11 11 12 12 11 10 8 7 5 5 5 4 4 3 3 3 3 2 1 1 1 1 1 1 1 1 1 1 1 1 1 0 1 1 1 2 1 2 2 2 3 2 2 2 2
10 11 10 10 10 12 11 14 13 11 11 9 5 5 5 4 3 4 3 3 2 3 1 1 1 1 1 1 1 1 1 1 1 1 1 0 1 1 1 2 2 2 2 2 2 2 2 2 2
11 12 14 10 12 11 12 14 12 11 12 12 9 6 5 4 4 3 2 3 3 3 1 1 0 1 1 1 1 1 1 2 1 1 1 1 0 1 1 1 2 1 2 2 3 3 3 3 2
13 15 14 12 10 13 14 15 11 10 12 12 12 8 5 5 4 3 3 2 3 2 2 1 1 1 0 0 0 1 1 1 1 1 1 1 0 0 1 1 1 1 2 2 2 2 2 1 1
15 15 13 13 11 12 15 15 12 11 12 12 13 11 9 6 4 3 3 2 2 2 2 2 1 1 1 0 1 1 1 2 1 1 1 1 1 1 1 1 2 2 2 3 3 2 1 1 1
12 13 13 12 10 12 13 14 13 12 14 13 13 12 10 8 5 4 4 3 3 2 2 2 2 1 1 2 2 2 2 1 2 1 1 1 1 1 1 1 2 2 3 3 2 2 1 2 1
12 13 14 11 11 13 14 15 13 13 13 13 12 12 11 8 8 6 5 4 3 3 2 2 2 2 1 1 1 2 2 2 1 1 1 1 1 1 1 1 2 3 3 3 3 2 2 2 2
13 14 13 13 14 13 16 17 15 14 13 13 12 12 10 8 7 7 6 5 4 4 3 2 2 2 2 1 1 2 2 2 2 2 1 1 1 0 1 1 2 2 3 3 3 3 3 3 3
15 11 12 13 16 18 15 19 16 14 14 13 12 11 10 10 7 7 6 5 4 3 2 2 2 1 2 1 1 1 2 3 2 1 1 1 1 1 1 1 1 2 2 3 3 2 3 4 4
13 10 11 13 15 15 17 18 16 14 15 13 11 10 10 11 10 8 6 4 3 3 3 2 2 1 1 1 1 1 2 2 2 2 2 2 2 1 1 1 1 2 2 2 2 2 3 2 3
10 11 15 14 16 19 17 18 19 14 14 13 11 11 11 11 11 8 5 3 3 3 3 2 2 2 2 1 1 2 2 3 2 3 2 3 2 2 1 1 1 1 2 2 2 2 2 2 2
11 14 19 20 20 21 17 19 16 15 13 12 12 11 11 10 11 11 7 5 4 4 3 3 3 3 2 2 2 2 2 2 3 2 3 3 2 1 1 1 1 1 1 1 1 2 2 3 3
13 14 18 22 22 21 20 20 16 12 12 13 12 12 11 11 10 10 9 5 5 4 3 3 3 3 4 3 3 2 2 2 2 3 3 2 1 1 1 1 1 1 1 1 2 2 2 2 3
15 16 13 18 22 22 19 19 16 15 14 14 15 15 13 12 12 11 12 9 7 7 5 4 5 5 4 4 4 4 4 4 4 3 3 2 1 1 1 1 1 1 1 1 1 2 2 3 2
13 12 16 16 22 23 21 22 17 16 15 15 15 15 14 13 12 12 12 11 11 10 9 9 9 8 8 6 5 5 5 5 5 4 5 5 2 2 1 1 1 1 2 2 2 3 3 3 4
15 15 15 15 17 20 24 22 17 15 14 14 15 15 15 13 12 11 11 10 10 10 9 9 8 7 7 6 6 6 6 6 6 6 5 5 4 3 3 3 3 4 4 4 4 4 3 5 6
12 14 14 16 19 19 20 20 18 17 15 15 15 15 15 13 12 11 10 9 9 9 8 8 7 7 6 6 6 6 6 6 7 7 7 7 7 7 6 5 4 5 5 5 4 5 5 6 7

GFSSGP_con_lsi_144.txt.gz
Lid_Strength_Index
3 6 7 7 12 13 13 12 10 10 9 7 6 7 9 8 10 12 2 1 -0 -0 -0 -1 -1 -1 -1 -1 -2 -2 -2 -2 -2 -2 -2 -2 -2 -2 -2 -2 -2 -2 -2 -2 -2 -2 -2 -2 -2
5 6 7 9 14 17 14 11 11 9 7 6 6 7 8 10 5 4 4 0 -0 -0 -1 -1 -1 -2 -1 -1 -2 -2 -2 -2 -2 -2 -2 -2 -2 -2 -2 -2 -2 -2 -2 -2 -2 -2 -2 -2 -2
7 7 10 12 15 16 14 10 9 8 7 7 7 6 7 8 4 3 2 1 -0 -0 -1 -1 -1 -2 -2 -1 -2 -2 -2 -2 -2 -2 -2 -2 -2 -2 -2 -2 -2 -2 -2 -2 -2 -2 -2 -2 -2
9 8 10 13 15 13 13 10 8 8 8 6 6 8 6 3 4 2 1 -0 0 0 -1 -1 -2 -2 -2 -2 -2 -2 -2 -2 -2 -2 -2 -2 -2 -2 -2 -2 -2 -2 -2 -2 -2 -2 -2 -2 -2
9 10 13 13 13 14 11 9 7 8 8 8 7 10 8 4 2 2 1 0 0 0 -0 -1 -1 -2 -2 -2 -2 -2 -2 -2 -2 -2 -2 -2 -2 -2 -2 -2 -2 -2 -2 -2 -2 -2 -2 -2 -2
11 11 14 15 13 14 12 9 8 8 7 7 8 8 8 3 3 3 1 1 -0 0 -0 -1 -0 -1 -2 -2 -2 -2 -2 -2 -2 -2 -2 -2 -2 -2 -2 -2 -2 -2 -2 -2 -2 -2 -2 -2 -2
12 13 14 14 13 14 12 9 10 8 8 8 5 10 7 4 3 2 1 0 0 -0 -0 0 -0 -0 -0 -1 -1 -1 -1 -2 -2 -2 -2 -2 -2 -2 -2 -2 -2 -2 -2 -2 -2 -2 -2 -2 -2
12 11 14 14 13 12 12 10 9 8 8 7 5 9 8 4 3 2 1 0 0 0 0 0 0 -0 -0 0 0 -0 -1 -1 -1 -1 -1 -1 -1 -1 -1 -1 -2 -2 -2 -2 -2 -2 -1 -2 -2
8 13 15 14 12 11 12 12 11 9 7 6 6 5 4 2 3 2 2 2 2 1 1 0 0 0 0 0 1 0 -0 -1 -1 -0 -0 0 0 -0 -0 -1 -2 -2 -2 -2 -2 -2 -1 -1 -0
8 13 13 11 10 12 11 12 11 10 8 8 8 5 3 3 3 3 3 3 2 2 2 0 0 1 0 -1 1 0 0 0 0 0 0 0 0 0 -0 0 -1 -2 -2 -2 -2 -1 -1 -0 1
11 11 10 9 8 9 11 12 11 10 10 7 8 6 4 3 4 3 3 3 3 2 1 1 0 0 0 0 1 1 0 0 0 1 1 0 1 1 1 1 1 2 2 1 1 1 1 1 2
12 11 10 8 8 10 11 11 12 11 9 6 5 4 4 4 4 4 3 3 3 2 1 1 0 0 1 0 0 1 0 1 1 1 1 1 2 2 2 2 2 2 2 2 2 2 2 2 1
10 10 10 9 10 9 11 11 12 12 11 8 4 4 4 4 4 3 3 2 2 2 1 1 1 1 1 0 0 0 0 1 1 1 1 1 2 2 2 2 2 2 2 2 2 2 2 2 2
9 10 10 9 9 10 12 12 12 11 11 6 5 5 5 4 4 3 3 3 3 2 2 1 1 2 1 1 0 0 -0 0 1 1 1 1 1 2 2 2 2 2 2 3 2 2 2 2 2
9 10 9 9 9 11 12 13 14 11 11 8 6 5 5 4 3 4 3 3 2 2 1 1 1 1 2 2 1 1 1 1 1 1 1 1 1 1 2 2 2 2 2 3 3 3 3 3 3
12 10 14 9 8 9 11 15 12 11 12 12 6 6 5 5 4 3 2 3 2 2 2 1 1 1 1 1 1 2 2 2 2 1 1 1 0 1 2 2 2 2 2 3 3 3 3 3 3
12 16 14 12 8 10 13 15 12 9 12 12 11 7 6 5 4 3 2 3 3 2 2 2 1 1 2 2 2 1 2 2 2 2 1 1 1 1 1 2 2 2 2 3 3 3 3 2 1
15 15 13 13 10 10 13 15 13 11 11 11 12 11 7 6 5 3 2 3 3 3 2 2 1 1 1 2 2 2 2 2 2 2 1 1 1 1 1 2 2 2 3 3 3 3 1 1 1
11 13 13 11 9 11 11 13 13 12 13 13 13 13 10 7 4 3 3 2 3 3 3 2 2 1 1 1 2 2 2 2 3 2 1 1 1 1 1 1 2 3 3 3 3 3 2 2 1
11 13 14 11 9 11 11 12 11 11 12 11 12 13 12 9 7 5 4 3 3 3 3 2 2 1 1 1 1 1 1 1 1 1 1 1 1 1 1 2 2 3 3 4 4 4 3 2 2
12 13 13 13 12 11 12 13 12 11 12 12 11 12 11 10 9 7 5 4 3 3 3 3 2 2 1 1 1 2 2 3 2 2 1 1 0 1 1 2 2 3 3 3 4 4 4 4 4
15 11 11 12 13 17 12 19 13 11 11 13 12 12 12 11 9 8 6 5 4 3 2 2 3 2 2 2 2 2 2 3 2 2 1 2 1 1 1 1 2 2 3 3 4 4 3 3 3
13 10 11 12 14 15 15 18 17 13 14 12 12 12 11 11 10 8 6 5 4 3 3 2 2 3 2 2 2 2 2 1 2 2 3 2 2 1 1 1 2 2 2 3 3 4 3 2 2
9 11 12 13 14 19 15 16 16 14 14 12 12 12 10 11 11 9 6 5 5 4 3 2 2 2 2 2 2 2 2 2 3 3 2 3 2 2 2 1 1 1 1 2 3 3 2 3 3
11 13 19 20 20 20 15 16 15 13 14 12 12 12 10 10 10 9 8 6 5 5 3 3 3 2 2 2 2 2 2 2 3 2 3 3 3 3 2 1 1 1 1 1 2 2 2 3 3
13 13 18 22 22 20 18 18 15 12 10 11 12 12 11 11 10 11 8 6 5 4 3 3 3 2 2 2 2 1 2 2 2 2 2 2 2 2 1 1 0 1 1 1 1 1 2 2 3
13 16 11 16 22 21 20 18 15 14 15 14 13 14 14 12 12 11 9 6 5 4 4 3 3 2 2 2 2 2 2 2 2 3 2 2 2 2 1 0 1 1 1 1 1 2 2 3 3
11 10 16 16 21 22 19 20 17 16 14 13 15 14 14 14 12 13 11 7 6 5 4 3 2 2 3 3 2 3 2 2 3 3 2 2 2 2 2 2 1 2 2 2 2 2 3 3 4
13 14 14 14 16 19 22 19 16 13 13 13 12 12 14 14 14 13 13 11 10 9 8 5 5 5 6 5 5 5 5 5 5 5 5 4 4 3 3 3 3 3 3 4 3 4 4 4 5
10 13 13 17 18 19 20 17 16 16 16 15 15 15 15 14 14 14 13 12 11 10 10 8 9 7 7 6 6 6 6 7 7 8 8 7 8 8 6 5 5 5 5 4 4 4 4 4 6